Regional Weather Roundup
Issued by NWS Glasgow, MT

Home | Current Version | Previous Version | Text Only | Print | Product List | Glossary On
Versions: 1 2 3 4 5 6 7 8 9 10 11 12 13 14 15 16 17 18 19 20 21 22 23 24 25 26 27 28 29 30 31 32 33 34 35 36 37 38 39 40 41 42 43 44 45 46 47 48 49 50
000
ASUS45 KGGW 290115
RWRGGW
HOURLY REGIONAL WEATHER ROUNDUP FOR NORTHEAST MONTANA
NATIONAL WEATHER SERVICE GLASGOW MONTANA
700 PM MDT FRI AUG 28 2015

NOTE: "FAIR" INDICATES FEW OR NO CLOUDS BELOW 12,000 FEET WITH NO
SIGNIFICANT WEATHER AND/OR OBSTRUCTIONS TO VISISBILITY.

NORTHEAST MONTANA


CITY           SKY/WX    TMP DP  RH WIND       PRES   REMARKS
GLASGOW        CLOUDY    79  41  25 NW7       29.90S HAZE
PLENTYWOOD       N/A     81  44  27 W12G22      N/A
WOLF POINT     CLOUDY    77  51  40 S3        29.89S HAZE
JORDAN           N/A     85  45  24 N5        29.93S
WINNETT          N/A     84  34  16 E6G16       N/A
SIDNEY         PTCLDY    75  48  38 W6        29.90S
GLENDIVE       CLOUDY    81  46  30 N5        29.95S
MALTA            N/A     83  50  31 SE1         N/A
SCOBEY           N/A     77  45  32 W5        29.91S HAZE

FORT PECK REPORTS


CITY           SKY/WX    TMP DP  RH WIND       PRES   REMARKS
FORT PECK        N/A     82  52  35 E8G16       N/A
THE PINES        N/A     83  46  27 NE3         N/A

SOUTHEAST MONTANA


CITY           SKY/WX    TMP DP  RH WIND       PRES   REMARKS
BILLINGS       MOCLDY    86  39  19 S5        30.00F HAZE
MILES CITY     CLOUDY    83  42  23 SW7       29.95F HAZE
BAKER          CLOUDY    74  48  39 W6        29.99S HAZE
LIVINGSTON     MOSUNNY   83  35  18 CALM      30.03F

CENTRAL MONTANA


CITY           SKY/WX    TMP DP  RH WIND       PRES   REMARKS
HAVRE          PTSUNNY   79  50  36 E8        29.83F HAZE
LEWISTOWN      PTSUNNY   80  43  26 E8        30.00F
GREAT FALLS    CLOUDY    84  36  18 S7        29.91F HAZE
CUT BANK       CLOUDY    77  38  24 W31G46    29.95R HAZE
HELENA         PTSUNNY   86  42  21 NW13G18   29.95R
BUTTE          CLOUDY    80  32  17 W7        30.09F HAZE
BOZEMAN        PTSUNNY   79  47  32 E7        30.02F

WESTERN MONTANA


CITY           SKY/WX    TMP DP  RH WIND       PRES   REMARKS
MISSOULA       CLOUDY    75  43  31 S7        30.01R HAZE
KALISPELL      NOT AVBL

NORTH DAKOTA


CITY           SKY/WX    TMP DP  RH WIND       PRES   REMARKS
WILLISTON      MOCLDY    82  48  30 W7        29.89R HAZE
DICKINSON      MOCLDY    79  52  38 W5        29.92S HAZE
MINOT          CLEAR     78  60  53 CALM      29.85S
BISMARCK       PTCLDY    78  68  71 SE6       29.88S

SOUTHERN SASKATCHEWAN


CITY           SKY/WX    TMP DP  RH WIND       PRES   REMARKS
REGINA         CLOUDY    72  57  60 W7        29.85R SMOKE
ESTEVAN        CLOUDY    77  63  61 SE5       29.85S SMOKE
SWIFT CURRENT  CLEAR     75  50  41 S7        29.85S HAZE




USA.gov is the U.S. government's official web portal to all federal, state and local government web resources and services.